Weather Roundup
Issued by NWS

Home | Current Version | Previous Version | Graphics & Text | Print | Product List | Glossary Off
Versions: 1 2 3 4 5 6 7 8 9 10 11 12 13 14 15 16 17 18 19 20 21 22 23 24 25 26 27 28 29 30 31 32 33 34 35 36 37 38 39 40 41 42 43 44 45 46 47 48 49 50

947
NZUS93 KARX 232359
HRRWXR

CURRENT HOURLY OBSERVATIONS ACROSS
MUCH OF THE UPPER MISSISSIPPI VALLEY
NATIONAL WEATHER SERVICE LA CROSSE WI
700 PM CDT THU MAR 23 2017


...SOUTHEAST MINNESOTA...


CITY           SKY/WX    TMP DP  RH WIND       PRES   REMARKS
ROCHESTER      CLOUDY    37  36  96 S14       29.85R WCI  28
ROCHESTER/MAYO CLOUDY    37  37 100 SE13      29.86R WCI  29
WINONA         CLOUDY    37  36  93 SE13      29.86F WCI  29
AUSTIN         CLOUDY    37  36  93 SE12G20   29.82R WCI  30
ALBERT LEA     CLOUDY    37  37 100 SE10      29.82S WCI  30
DODGE CENTER   CLOUDY    37  36  93 SE16      29.81R WCI  28
PRESTON        CLOUDY    37  34  90 SE10      29.87R WCI  29
OWATONNA       CLOUDY    37  36  93 SE13G18   29.83R WCI  29
FARIBAULT      CLOUDY    37  36  93 SE9       29.84R WCI  31
$$

...ELSEWHERE IN MINNESOTA...


CITY           SKY/WX    TMP DP  RH WIND       PRES   REMARKS
MINNEAPOLIS    CLOUDY    39  33  79 SE12      29.83F WCI  32
INTNL FALLS    CLOUDY    33  31  92 SE13      29.78F WCI  24
DULUTH         FRZ RAIN  33  29  85 SE8       29.84F FOG     WCI  26
RED WING       CLOUDY    41  30  65 SE12G20   29.85S
REDWOOD FALLS  CLOUDY    38  33  82 SE13      29.77S WCI  30
MANKATO        CLOUDY    38  35  89 SE14      29.82S WCI  30
WORTHINGTON    CLOUDY    42  36  79 SE7       29.73R
FAIRMONT       CLOUDY    41  35  79 SE16      29.78R
$$

...SOUTHWEST WISCONSIN...


CITY           SKY/WX    TMP DP  RH WIND       PRES   REMARKS
LA CROSSE      CLOUDY    41  36  82 E7        29.92F
PRAIRIE DU CHI MOCLDY    37  36  96 E6        29.96S WCI  32
BOSCOBEL       CLOUDY    40  33  76 E3        30.00R
LONE ROCK      LGT RAIN  39  33  79 SE7       30.00R WCI  34
PLATTEVILLE    CLOUDY    40  33  76 SE12      29.96R WCI  33
FORT MC COY    TSTM      40  35  84 E10       29.95F VSB 3/4 WCI  33
CAMP DOUGLAS   LGT RAIN  41  32  70 SE6       29.98F
MAUSTON-NEW LI LGT RAIN  43  28  56 SE6       30.00R
VIROQUA        CLOUDY    36  36  99 SE8       29.97R WCI  29
WIS DELLS      LGT RAIN  41  26  55 SE5G10    29.99R
$$

...ELSEWHERE IN WISCONSIN...


CITY           SKY/WX    TMP DP  RH WIND       PRES   REMARKS
MILWAUKEE      CLOUDY    41  28  60 SE16G31   30.00F
MADISON        TSTM      42  27  55 S17       29.97R
GREEN BAY      CLOUDY    37  28  70 S10       30.06R WCI  30
EAU CLAIRE     NOT AVBL
BLACK RVR FLS  CLOUDY    42  31  64 CALM      29.95F
MEDFORD        CLOUDY    36  23  59 SE13      29.91F WCI  28
WAUSAU         CLOUDY    39  22  50 SE12      29.94F WCI  32
WIS RAPIDS     CLOUDY    39  31  72 S7        30.01F WCI  34
MARSHFIELD     CLOUDY    39  23  52 SE9       29.95R WCI  33
RICE LAKE      CLOUDY    39  26  58 SE12G20   29.88S WCI  32
$$

...NORTHEAST IOWA...


CITY           SKY/WX    TMP DP  RH WIND       PRES   REMARKS
WATERLOO       CLOUDY    42  36  79 SE15G25   29.86F
DUBUQUE        CLOUDY    39  33  79 S23       29.93F WCI  28
DECORAH        PTCLDY    39  36  87 SE18G24   29.81F WCI  30
MASON CITY     LGT RAIN  40  37  89 SE16      29.82R WCI  31
CHARLES CITY   CLOUDY    39  39 100 S20G29    29.85R WCI  30
OELWEIN        NOT AVBL
$$

...ELSEWHERE IN IOWA...


CITY           SKY/WX    TMP DP  RH WIND       PRES   REMARKS
DES MOINES     MOCLDY    55  38  52 E12       29.77F
IOWA CITY      PTCLDY    47  38  71 SE16G24   29.91F
FORT DODGE     CLOUDY    46  34  61 SE14G24   29.76S
MARSHALLTOWN   CLOUDY    46  38  73 SE15      29.80F
CEDAR RAPIDS   CLOUDY    44  38  79 SE17G24   29.87F
$$

...NORTHERN ILLINOIS...


CITY           SKY/WX    TMP DP  RH WIND       PRES   REMARKS
CHICAGO-OHARE  CLOUDY    50  26  39 S20G28    30.06F
CHICAGO-MIDWAY CLOUDY    50  26  39 S16G24    30.09F
MOLINE         CLOUDY    46  36  68 SE12      29.95F
ROCKFORD       TSTM      44  32  62 S20G25    30.03F
PEORIA         CLEAR     46  37  71 S13       30.03F
$$

NOTE: "FAIR" INDICATES FEW OR NO CLOUDS BELOW 12,000 FEET WITH NO
SIGNIFICANT WEATHER AND/OR OBSTRUCTIONS TO VISIBILITY. WIND
SPEEDS ARE IN MILES-PER-HOUR.




USA.gov is the U.S. government's official web portal to all federal, state and local government web resources and services.